[[{"header":{"parameterUnit":"m.s-1","parameterCategory":1,"la1":30.2991,"la2":30.254,"lo1":-89.0895,"lo2":-89.0444,"dy":0.0017,"dx":0.0017,"nx":28,"ny":28,"refTime":"2026-01-11T09:00:00:Z","depth":0,"parameterNumber":2,"parameterNumberName":"U-component_of_WINDS"},"data":[0,0,0,0,0,0,0,0,0,0,0,0,0,0,0,0,0,0,0,0,0,0,0,0,0,0,0,0,0,0,0,0,0,0,0,0,0,0,0,0,0,0,0,0,0,0,0,0,0,0,0,0,0,0,0,0,0,0,-0.3396,-0.3396,0,-0.3405,-0.3405,-0.3405,-0.3394,-0.3394,-0.3393,-0.3393,-0.3403,-0.3404,-0.3405,0,0,0,0,0,0,0,0,0,0,0,0,0,-0.3371,-0.3371,-0.3396,-0.3396,-0.3397,-0.3405,-0.3405,-0.3405,-0.3394,-0.3394,-0.3393,-0.3393,-0.3403,-0.3404,-0.3405,0,0,0,0,0,0,0,0,0,0,0,0,0,-0.3381,-0.3371,-0.3396,-0.3392,-0.3392,-0.3405,-0.3405,-0.3405,-0.3394,-0.3394,-0.3393,-0.3392,-0.3403,-0.3404,-0.3405,-0.3423,0,0,-0.3408,-0.3408,0,0,0,0,0,0,0,0,-0.338,-0.3382,-0.3393,-0.3392,-0.3392,-0.3398,-0.34,-0.3411,-0.3394,-0.3393,-0.3393,-0.3392,-0.3402,-0.3403,-0.3406,-0.3424,-0.3424,-0.3408,-0.3408,-0.3409,-0.3409,0,0,0,0,0,0,0,-0.338,-0.3381,-0.34,-0.3393,-0.3392,-0.339,-0.3391,-0.3402,-0.3401,-0.3393,-0.3393,-0.3394,-0.3402,-0.3405,-0.3406,-0.3424,-0.3408,-0.3409,-0.3409,-0.341,-0.3457,-0.3457,0,0,0,0,0,0,-0.3379,-0.3381,-0.34,-0.34,-0.3384,-0.3391,-0.3392,-0.3397,-0.3401,-0.3401,-0.3394,-0.3393,-0.3404,-0.3405,-0.3407,-0.3428,-0.3409,-0.341,-0.341,-0.3456,-0.3457,-0.3457,0,0,0,0,0,0,-0.3379,-0.3381,-0.3399,-0.339,-0.3392,-0.3392,-0.3398,-0.3397,-0.3401,-0.3402,-0.3401,-0.3398,-0.3403,-0.3405,-0.3419,-0.3428,-0.341,-0.3411,-0.3455,-0.3456,-0.3457,-0.3472,0,0,0,0,0,0,-0.3378,-0.3381,-0.3388,-0.339,-0.3393,-0.3411,-0.3398,-0.3398,-0.3402,-0.3401,-0.3405,-0.3405,-0.3403,-0.3417,-0.342,-0.3429,-0.3412,-0.3454,-0.3456,-0.3457,-0.347,-0.3473,-0.3475,0,0,0,0,0,-0.3377,-0.3392,-0.3388,-0.3391,-0.3402,-0.3412,-0.3413,-0.341,-0.3403,-0.341,-0.341,-0.3405,-0.3427,-0.3419,-0.3422,-0.3432,-0.3454,-0.3455,-0.3457,-0.3469,-0.3472,-0.3475,0,0,0,0,0,0,-0.3392,-0.3392,-0.3388,-0.3404,-0.3408,-0.341,-0.3419,-0.3414,-0.342,-0.3419,-0.3415,-0.3416,-0.3431,-0.3432,-0.3424,-0.3449,-0.3439,-0.3441,-0.3448,-0.3451,-0.3453,-0.3453,-0.3413,0,0,0,0,0,-0.3396,-0.3404,-0.3405,-0.3419,-0.3421,-0.342,-0.3424,-0.3421,-0.3425,-0.3427,-0.3428,-0.3433,-0.344,-0.3446,-0.3453,-0.347,-0.3471,-0.3478,-0.3481,-0.3483,-0.3485,-0.3494,-0.3497,-0.3462,-0.3462,-0.3462,0,0,-0.3407,-0.3408,-0.3414,-0.3422,-0.3424,-0.3433,-0.3421,-0.3431,-0.3437,-0.3428,-0.3441,-0.3442,-0.3447,-0.3462,-0.3469,-0.3464,-0.3494,-0.3485,-0.3486,-0.3487,-0.3496,-0.3499,-0.3502,-0.3463,-0.3463,-0.3463,0,0,-0.343,-0.3432,-0.3444,-0.3447,-0.345,-0.3449,-0.3452,-0.3454,-0.3454,-0.3467,-0.346,-0.3468,-0.3481,-0.3484,-0.3488,-0.3511,-0.3506,-0.3514,-0.3527,-0.3536,-0.3538,-0.3541,-0.3549,-0.3552,-0.3516,-0.3516,-0.3516,0,-0.3443,-0.3456,-0.3451,-0.3461,-0.3464,-0.3456,-0.3468,-0.3471,-0.3477,-0.3479,-0.3473,-0.349,-0.3492,-0.3508,-0.3513,-0.3516,-0.352,-0.3514,-0.3538,-0.3541,-0.3543,-0.3551,-0.3554,-0.3516,-0.3516,-0.3516,-0.3516,0,-0.3471,-0.348,-0.3489,-0.3494,-0.3498,-0.3509,-0.3506,-0.3512,-0.3508,-0.3507,-0.352,-0.3522,-0.353,-0.3533,-0.353,-0.3548,-0.3545,-0.3539,-0.3529,-0.3547,-0.3554,-0.3557,-0.3518,-0.3517,-0.3517,-0.3517,0,0,-0.3505,-0.3506,-0.351,-0.3512,-0.3515,-0.3521,-0.3531,-0.3538,-0.3542,-0.3546,-0.3555,-0.3566,-0.356,-0.3563,-0.3561,-0.3568,-0.3586,-0.3561,-0.3561,-0.3566,-0.3606,-0.3611,-0.3615,-0.3582,-0.3583,-0.3584,-0.3606,0,-0.3529,-0.3546,-0.3541,-0.3559,-0.3566,-0.3558,-0.3566,-0.3569,-0.3568,-0.3575,-0.3574,-0.3582,-0.3573,-0.3575,-0.3583,-0.3583,-0.3594,-0.3581,-0.3591,-0.3591,-0.359,-0.3619,-0.3624,-0.3645,-0.3609,-0.3609,-0.3609,0,-0.3559,-0.3563,-0.3581,-0.3581,-0.3584,-0.3592,-0.3597,-0.3604,-0.3606,-0.3605,-0.3609,-0.3604,-0.3614,-0.3603,-0.3617,-0.3608,-0.3611,-0.3612,-0.3612,-0.3614,-0.3602,-0.3621,-0.3652,-0.3655,-0.3614,-0.3614,-0.3613,0,-0.3582,-0.3592,-0.3604,-0.3605,-0.3607,-0.3612,-0.3613,-0.3615,-0.3619,-0.3623,-0.3626,-0.3631,-0.3635,-0.3639,-0.3636,-0.3628,-0.365,-0.3639,-0.365,-0.365,-0.3655,-0.3655,-0.3688,-0.3657,-0.3657,-0.3657,-0.3657,0,-0.3608,-0.362,-0.3614,-0.3621,-0.3633,-0.3628,-0.364,-0.364,-0.3641,-0.3649,-0.3641,-0.3648,-0.3644,-0.365,-0.3648,-0.3659,-0.3661,-0.366,-0.366,-0.3661,-0.3661,-0.3664,-0.3663,-0.3658,-0.3658,-0.3658,-0.3657,0,-0.3637,-0.3633,-0.3645,-0.3645,-0.3645,-0.3654,-0.3653,-0.366,-0.3658,-0.3668,-0.3669,-0.3667,-0.3674,-0.3671,-0.3679,-0.3677,-0.3692,-0.3689,-0.3691,-0.3691,-0.3701,-0.37,-0.3737,-0.3741,-0.3708,-0.3708,-0.3708,0,-0.3654,-0.3663,-0.3662,-0.3666,-0.3667,-0.3674,-0.3678,-0.3672,-0.3676,-0.3679,-0.3686,-0.3692,-0.3697,-0.3709,-0.3708,-0.3713,-0.3711,-0.3723,-0.3712,-0.3713,-0.3711,-0.3711,-0.3712,-0.3726,-0.3726,-0.3727,-0.3727,0,-0.3686,-0.3683,-0.3689,-0.3693,-0.3697,-0.37,-0.3703,-0.3707,-0.3702,-0.3706,-0.3713,-0.3717,-0.3724,-0.3731,-0.3735,-0.3736,-0.3731,-0.373,-0.3733,-0.3735,-0.3736,-0.3735,-0.3698,-0.373,-0.3729,-0.3729,-0.3729,-0.3729,-0.3709,-0.3716,-0.3717,-0.3723,-0.3724,-0.3726,-0.3732,-0.3731,-0.3736,-0.3742,-0.3738,-0.3746,-0.3748,-0.3753,-0.3755,-0.3761,-0.3756,-0.376,-0.3762,-0.3763,-0.3764,-0.3734,-0.3762,-0.3762,-0.3762,-0.3762,-0.3762,0,-0.3741,-0.374,-0.3746,-0.3749,-0.3754,-0.3747,-0.3749,-0.3754,-0.3761,-0.3762,-0.3767,-0.3774,-0.378,-0.3779,-0.3784,-0.379,-0.3787,-0.3791,-0.3791,-0.3791,-0.3768,-0.3765,-0.3793,-0.3793,-0.3793,-0.3793,-0.3793,-0.3793,-0.3758,-0.3768,-0.3766,-0.3777,-0.3777,-0.3784,-0.3786,-0.3788,-0.3789,-0.3798,-0.3802,-0.3801,-0.3802,-0.3807,-0.3812,-0.3811,-0.3814,-0.3819,-0.3818,-0.3796,-0.3793,-0.379,-0.3787,-0.3819,-0.3819,-0.384,-0.384,-0.3841]},{"header":{"parameterUnit":"m.s-1","parameterCategory":1,"la1":30.2991,"la2":30.254,"lo1":-89.0895,"lo2":-89.0444,"dy":0.0017,"dx":0.0017,"nx":28,"ny":28,"refTime":"2026-01-11T09:00:00:Z","depth":0,"parameterNumber":3,"parameterNumberName":"V-component_of_WINDS"},"data":[0,0,0,0,0,0,0,0,0,0,0,0,0,0,0,0,0,0,0,0,0,0,0,0,0,0,0,0,0,0,0,0,0,0,0,0,0,0,0,0,0,0,0,0,0,0,0,0,0,0,0,0,0,0,0,0,0,0,-6.7963,-6.7964,0,-6.806,-6.8061,-6.8062,-6.8036,-6.8034,-6.8032,-6.8031,-6.8124,-6.8129,-6.8133,0,0,0,0,0,0,0,0,0,0,0,0,0,-6.7751,-6.7755,-6.7963,-6.7964,-6.7965,-6.806,-6.8061,-6.8062,-6.8037,-6.8034,-6.8032,-6.803,-6.8123,-6.8128,-6.8133,0,0,0,0,0,0,0,0,0,0,0,0,0,-6.7845,-6.7757,-6.7962,-6.7964,-6.7965,-6.8059,-6.8061,-6.8063,-6.8037,-6.8034,-6.8031,-6.8029,-6.8121,-6.8128,-6.8134,-6.8231,0,0,-6.8154,-6.8156,0,0,0,0,0,0,0,0,-6.784,-6.7853,-6.7962,-6.7964,-6.7965,-6.8033,-6.8021,-6.8119,-6.8038,-6.8009,-6.803,-6.8027,-6.8096,-6.8104,-6.8129,-6.8236,-6.824,-6.8154,-6.8158,-6.8161,-6.8163,0,0,0,0,0,0,0,-6.7833,-6.7849,-6.8001,-6.7964,-6.7966,-6.7958,-6.7969,-6.8039,-6.8067,-6.8012,-6.801,-6.8022,-6.8096,-6.8122,-6.8131,-6.8241,-6.8154,-6.816,-6.8164,-6.8166,-6.8435,-6.8438,0,0,0,0,0,0,-6.7826,-6.7843,-6.7998,-6.8004,-6.7894,-6.7965,-6.7976,-6.8014,-6.8067,-6.8072,-6.8025,-6.8021,-6.8113,-6.8123,-6.8134,-6.8253,-6.8161,-6.8167,-6.817,-6.8431,-6.8435,-6.8439,0,0,0,0,0,0,-6.7822,-6.784,-6.7994,-6.7923,-6.7942,-6.7971,-6.8014,-6.8018,-6.8044,-6.8077,-6.8081,-6.8047,-6.8111,-6.8125,-6.8208,-6.8256,-6.817,-6.8175,-6.8428,-6.8433,-6.8437,-6.8491,0,0,0,0,0,0,-6.7816,-6.7839,-6.7877,-6.7924,-6.7946,-6.8068,-6.8017,-6.8022,-6.8056,-6.8052,-6.8098,-6.8103,-6.811,-6.8199,-6.8214,-6.8263,-6.818,-6.8423,-6.843,-6.8436,-6.8485,-6.8497,-6.8507,0,0,0,0,0,-6.7809,-6.7886,-6.7879,-6.7898,-6.7995,-6.8071,-6.8083,-6.809,-6.806,-6.8098,-6.8119,-6.8102,-6.8248,-6.8207,-6.8225,-6.8276,-6.842,-6.8428,-6.8435,-6.848,-6.8495,-6.8507,0,0,0,0,0,0,-6.7841,-6.7893,-6.7885,-6.7981,-6.8022,-6.8066,-6.8114,-6.8105,-6.8154,-6.8148,-6.8154,-6.8165,-6.825,-6.8271,-6.8225,-6.8374,-6.833,-6.8341,-6.8357,-6.8372,-6.8383,-6.8376,-6.8186,0,0,0,0,0,-6.786,-6.7919,-6.796,-6.804,-6.8062,-6.8085,-6.8118,-6.8121,-6.8163,-6.8179,-6.8206,-6.8247,-6.8302,-6.8338,-6.839,-6.8488,-6.8498,-6.8532,-6.8543,-6.8552,-6.8562,-6.8617,-6.8632,-6.8463,-6.8463,-6.8463,0,0,-6.7898,-6.7934,-6.797,-6.8048,-6.808,-6.8141,-6.8099,-6.8164,-6.8209,-6.8188,-6.827,-6.8291,-6.8336,-6.8428,-6.847,-6.8448,-6.8611,-6.8561,-6.8568,-6.8573,-6.8626,-6.8642,-6.8656,-6.8468,-6.8467,-6.8466,0,0,-6.8,-6.8032,-6.8104,-6.8138,-6.8189,-6.8204,-6.8221,-6.8268,-6.8282,-6.8364,-6.8351,-6.8403,-6.8498,-6.8531,-6.856,-6.8678,-6.8664,-6.8694,-6.8752,-6.8806,-6.8819,-6.8831,-6.8874,-6.889,-6.8704,-6.8704,-6.8704,0,-6.8041,-6.8133,-6.8142,-6.8209,-6.8244,-6.8231,-6.8304,-6.8336,-6.84,-6.8424,-6.8399,-6.8519,-6.8548,-6.8649,-6.8678,-6.8701,-6.8721,-6.8689,-6.8817,-6.8829,-6.884,-6.8881,-6.8897,-6.8707,-6.8707,-6.8706,-6.8706,0,-6.8182,-6.8245,-6.8297,-6.8363,-6.8403,-6.8473,-6.8492,-6.8531,-6.8531,-6.8549,-6.8633,-6.8668,-6.8729,-6.8752,-6.8751,-6.8853,-6.8839,-6.8816,-6.8771,-6.886,-6.8899,-6.8914,-6.8712,-6.8711,-6.871,-6.8709,0,0,-6.8305,-6.8377,-6.8396,-6.8426,-6.8482,-6.8531,-6.86,-6.8661,-6.8696,-6.8741,-6.8799,-6.8881,-6.8861,-6.8894,-6.8897,-6.8944,-6.9036,-6.8915,-6.8916,-6.8938,-6.9152,-6.917,-6.9188,-6.9028,-6.9031,-6.9033,-6.9149,0,-6.8412,-6.8536,-6.8548,-6.8659,-6.8719,-6.8708,-6.8769,-6.8809,-6.8828,-6.888,-6.8899,-6.8958,-6.8927,-6.8947,-6.8993,-6.9015,-6.908,-6.9007,-6.9081,-6.9084,-6.9072,-6.9208,-6.9226,-6.9334,-6.9164,-6.9166,-6.9168,0,-6.8553,-6.8606,-6.8724,-6.8774,-6.88,-6.8854,-6.8912,-6.8963,-6.9008,-6.9019,-6.9058,-6.9055,-6.9125,-6.9078,-6.9176,-6.9126,-6.9157,-6.9173,-6.9177,-6.9185,-6.9132,-6.922,-6.9368,-6.9385,-6.9192,-6.919,-6.9188,0,-6.8634,-6.8733,-6.8818,-6.8844,-6.8904,-6.8943,-6.8969,-6.9012,-6.9049,-6.9099,-6.9123,-6.918,-6.9212,-6.9255,-6.9268,-6.9232,-6.9366,-6.9319,-6.9376,-6.9376,-6.9405,-6.9403,-6.9561,-6.9423,-6.9423,-6.9423,-6.9422,0,-6.8753,-6.8826,-6.8855,-6.8907,-6.8988,-6.9,-6.908,-6.9104,-6.9143,-6.9199,-6.9192,-6.9244,-6.9257,-6.9311,-6.9321,-6.9401,-6.9415,-6.9425,-6.9427,-6.9426,-6.9425,-6.9447,-6.944,-6.9427,-6.9426,-6.9425,-6.9425,0,-6.8856,-6.8878,-6.897,-6.902,-6.9035,-6.9093,-6.9135,-6.9185,-6.9203,-6.9274,-6.9291,-6.932,-6.9384,-6.9401,-6.9476,-6.9483,-6.9578,-6.9572,-6.9563,-6.9563,-6.962,-6.9615,-6.9798,-6.9823,-6.9668,-6.967,-6.9671,0,-6.8931,-6.8987,-6.9045,-6.9083,-6.9112,-6.9173,-6.9212,-6.9226,-6.9266,-6.9324,-6.9367,-6.9431,-6.9482,-6.9585,-6.9611,-6.9669,-6.9666,-6.9726,-6.9674,-6.9673,-6.9668,-6.9665,-6.9671,-6.9736,-6.9737,-6.9739,-6.974,0,-6.9062,-6.9071,-6.9128,-6.9191,-6.9238,-6.9287,-6.9333,-6.9365,-6.9385,-6.9431,-6.9498,-6.9538,-6.9617,-6.9681,-6.974,-6.9765,-6.9757,-6.9756,-6.9773,-6.9773,-6.9766,-6.9772,-6.9591,-6.9752,-6.9751,-6.975,-6.9749,-6.9749,-6.9154,-6.9205,-6.9254,-6.9319,-6.9356,-6.9401,-6.9451,-6.9477,-6.9534,-6.9601,-6.9605,-6.9678,-6.9724,-6.9803,-6.9832,-6.9889,-6.987,-6.9894,-6.99,-6.9906,-6.9911,-6.9757,-6.9899,-6.9899,-6.9898,-6.9898,-6.9898,0,-6.9286,-6.9318,-6.9378,-6.9445,-6.9496,-6.9486,-6.9538,-6.9581,-6.9646,-6.969,-6.9742,-6.982,-6.9882,-6.9914,-6.9976,-7.0015,-7.0013,-7.0031,-7.0028,-7.0035,-6.9923,-6.9904,-7.0032,-7.0032,-7.0032,-7.0032,-7.0032,-7.0032,-6.9361,-6.9447,-6.9463,-6.9567,-6.9598,-6.9672,-6.9702,-6.9743,-6.9779,-6.9867,-6.992,-6.9941,-6.9981,-7.0046,-7.0103,-7.011,-7.0134,-7.0155,-7.016,-7.0056,-7.0042,-7.0029,-7.0011,-7.0159,-7.0159,-7.0267,-7.0268,-7.0269]}]]